[[{"header":{"parameterUnit":"m.s-1","parameterCategory":1,"la1":30.2991,"la2":30.254,"lo1":-89.0895,"lo2":-89.0444,"dy":0.0017,"dx":0.0017,"nx":28,"ny":28,"refTime":"2025-07-27T03:00:00:Z","depth":0,"parameterNumber":2,"parameterNumberName":"U-component_of_WINDS"},"data":[0,0,0,0,0,0,0,0,0,0,0,0,0,0,0,0,0,0,0,0,0,0,0,0,0,0,0,0,0,0,0,0,0,0,0,0,0,0,0,0,0,0,0,0,0,0,0,0,0,0,0,0,0,0,0,0,0,0,3.4769,3.477,0,3.4875,3.4877,3.4878,3.4814,3.4811,3.4808,3.4805,3.4916,3.4922,3.4928,0,0,0,0,0,0,0,0,0,0,0,0,0,3.4511,3.4516,3.4769,3.477,3.4772,3.4875,3.4877,3.4878,3.4814,3.481,3.4807,3.4803,3.4914,3.4921,3.4928,0,0,0,0,0,0,0,0,0,0,0,0,0,3.4621,3.4518,3.4769,3.4752,3.4752,3.4875,3.4877,3.4878,3.4815,3.481,3.4806,3.4802,3.4912,3.4921,3.4929,3.5075,0,0,3.4956,3.496,0,0,0,0,0,0,0,0,3.4615,3.4631,3.4753,3.4754,3.4753,3.4826,3.4827,3.4945,3.4816,3.4791,3.4805,3.4799,3.489,3.4901,3.4931,3.5081,3.5085,3.4957,3.4962,3.4966,3.4968,0,0,0,0,0,0,0,3.4607,3.4626,3.4811,3.4755,3.4755,3.474,3.475,3.4849,3.4865,3.4793,3.4789,3.4802,3.4889,3.4922,3.4933,3.5087,3.4957,3.4964,3.497,3.4973,3.5359,3.5364,0,0,0,0,0,0,3.4601,3.462,3.4808,3.4814,3.4671,3.4748,3.476,3.4808,3.4864,3.4868,3.4806,3.4798,3.491,3.4923,3.4937,3.5109,3.4966,3.4974,3.4979,3.5354,3.536,3.5366,0,0,0,0,0,0,3.4595,3.4618,3.4803,3.4716,3.4738,3.4757,3.4812,3.4812,3.4845,3.4874,3.4876,3.4836,3.4907,3.4924,3.504,3.5112,3.4978,3.4986,3.5348,3.5356,3.5363,3.5457,0,0,0,0,0,0,3.4588,3.4617,3.4673,3.4718,3.4743,3.4906,3.4816,3.4818,3.486,3.4852,3.4903,3.4907,3.4904,3.5028,3.5049,3.5122,3.4993,3.5342,3.5352,3.5361,3.5448,3.5467,3.5483,0,0,0,0,0,3.4579,3.4696,3.4676,3.4699,3.4813,3.491,3.4925,3.4918,3.4866,3.4922,3.494,3.4906,3.5101,3.504,3.5064,3.514,3.5337,3.5349,3.536,3.544,3.5463,3.5483,0,0,0,0,0,0,3.4661,3.4702,3.468,3.4814,3.4859,3.4899,3.497,3.4944,3.5005,3.4995,3.4985,3.4997,3.5118,3.5141,3.5072,3.5283,3.5211,3.5228,3.5263,3.5286,3.5304,3.5295,3.5,0,0,0,0,0,3.4694,3.4769,3.4801,3.4917,3.494,3.4951,3.4993,3.4984,3.503,3.5049,3.5076,3.5122,3.5194,3.5241,3.5309,3.5451,3.546,3.5515,3.5532,3.5547,3.5561,3.5635,3.5659,3.5403,3.5403,3.5402,0,0,3.4764,3.4796,3.4844,3.4934,3.4967,3.5044,3.4968,3.5053,3.511,3.5062,3.5173,3.5194,3.5245,3.5374,3.5432,3.5397,3.5634,3.5561,3.5573,3.5579,3.5649,3.5673,3.5695,3.541,3.5409,3.5408,0,0,3.4931,3.4963,3.5062,3.5096,3.5147,3.5153,3.5177,3.5221,3.5232,3.5342,3.5307,3.5375,3.5499,3.5536,3.5572,3.575,3.572,3.5772,3.5865,3.5937,3.5957,3.5975,3.6037,3.6059,3.5786,3.5787,3.5787,0,3.5012,3.5127,3.5116,3.5203,3.5243,3.5201,3.53,3.5335,3.5406,3.5434,3.5393,3.5546,3.5578,3.5714,3.5757,3.5787,3.5813,3.5766,3.5955,3.5973,3.599,3.6048,3.6072,3.5792,3.5792,3.5791,3.5791,0,3.5222,3.5302,3.5376,3.5443,3.5491,3.5584,3.5587,3.5637,3.5623,3.5634,3.5746,3.5782,3.5855,3.5887,3.5875,3.602,3.5996,3.5956,3.5883,3.602,3.6075,3.6097,3.5801,3.5799,3.5797,3.5796,0,0,3.5445,3.5503,3.553,3.5559,3.5611,3.5672,3.5763,3.5832,3.5874,3.5925,3.5999,3.6104,3.6066,3.6106,3.6098,3.6161,3.6297,3.6113,3.6114,3.6144,3.6457,3.6485,3.6512,3.6278,3.6282,3.6285,3.6451,0,3.5613,3.577,3.5762,3.5909,3.5981,3.5941,3.602,3.606,3.6072,3.6135,3.6148,3.6221,3.6167,3.619,3.6251,3.6268,3.6359,3.6256,3.6346,3.635,3.6333,3.6541,3.6572,3.6728,3.6473,3.6477,3.6479,0,3.5831,3.5886,3.6039,3.6078,3.6108,3.6178,3.624,3.6301,3.6345,3.6349,3.6393,3.6373,3.6464,3.6389,3.6513,3.6443,3.6479,3.6493,3.6499,3.6506,3.6422,3.6552,3.6777,3.68,3.6513,3.6511,3.6508,0,3.5975,3.6088,3.6193,3.6219,3.6268,3.6317,3.634,3.6379,3.6421,3.6475,3.6502,3.6567,3.6602,3.6653,3.6651,3.6597,3.6776,3.6702,3.6781,3.6781,3.682,3.6818,3.7053,3.6846,3.6846,3.6846,3.6845,0,3.6164,3.6259,3.6258,3.6323,3.6428,3.6417,3.6521,3.6538,3.6573,3.664,3.6611,3.6675,3.6669,3.6734,3.6733,3.6835,3.6852,3.6857,3.6855,3.6859,3.6858,3.6882,3.687,3.6852,3.685,3.6849,3.6848,0,3.6342,3.6346,3.6458,3.6493,3.6504,3.658,3.6609,3.6671,3.6679,3.6764,3.6783,3.6796,3.687,3.6873,3.696,3.6959,3.7082,3.7069,3.7067,3.7064,3.7142,3.7134,3.74,3.7433,3.7207,3.7209,3.7211,0,3.6462,3.6533,3.6575,3.6617,3.6642,3.6711,3.6752,3.6744,3.6788,3.6842,3.6897,3.6967,3.7023,3.7143,3.716,3.7225,3.7213,3.7301,3.7222,3.7222,3.7212,3.7207,3.7213,3.7316,3.7319,3.7321,3.7323,0,3.6672,3.667,3.673,3.6791,3.684,3.6888,3.6932,3.6968,3.6965,3.7016,3.709,3.7134,3.7219,3.7289,3.7352,3.7375,3.7348,3.7347,3.7369,3.7372,3.7367,3.7369,3.7107,3.7341,3.7339,3.7338,3.7337,3.7336,3.6824,3.6884,3.6922,3.699,3.7022,3.7063,3.7121,3.7135,3.7196,3.7264,3.7256,3.7338,3.7378,3.7459,3.7487,3.755,3.752,3.7552,3.7559,3.7567,3.7574,3.7357,3.7562,3.7562,3.7561,3.7561,3.756,0,3.7031,3.7053,3.7115,3.7176,3.7229,3.7197,3.7244,3.729,3.7362,3.7401,3.7456,3.754,3.7607,3.7628,3.7693,3.774,3.7729,3.7757,3.7753,3.7758,3.7599,3.7573,3.7764,3.7764,3.7764,3.7764,3.7764,3.7764,3.7145,3.7245,3.7247,3.7362,3.7383,3.7461,3.749,3.7528,3.7558,3.7653,3.7707,3.772,3.7752,3.7819,3.7878,3.7883,3.7907,3.794,3.794,3.779,3.777,3.775,3.7725,3.7946,3.7946,3.8093,3.8095,3.8096]},{"header":{"parameterUnit":"m.s-1","parameterCategory":1,"la1":30.2991,"la2":30.254,"lo1":-89.0895,"lo2":-89.0444,"dy":0.0017,"dx":0.0017,"nx":28,"ny":28,"refTime":"2025-07-27T03:00:00:Z","depth":0,"parameterNumber":3,"parameterNumberName":"V-component_of_WINDS"},"data":[0,0,0,0,0,0,0,0,0,0,0,0,0,0,0,0,0,0,0,0,0,0,0,0,0,0,0,0,0,0,0,0,0,0,0,0,0,0,0,0,0,0,0,0,0,0,0,0,0,0,0,0,0,0,0,0,0,0,1.1386,1.1386,0,1.1351,1.135,1.135,1.1305,1.1305,1.1304,1.1303,1.1266,1.1266,1.1266,0,0,0,0,0,0,0,0,0,0,0,0,0,1.1414,1.1414,1.1386,1.1386,1.1385,1.1351,1.135,1.135,1.1305,1.1305,1.1304,1.1303,1.1267,1.1266,1.1266,0,0,0,0,0,0,0,0,0,0,0,0,0,1.1393,1.1414,1.1386,1.1359,1.1356,1.1351,1.135,1.135,1.1306,1.1305,1.1303,1.1302,1.1267,1.1266,1.1266,1.1284,0,0,1.1264,1.1264,0,0,0,0,0,0,0,0,1.1394,1.1392,1.1364,1.1361,1.1358,1.1331,1.1347,1.1328,1.1306,1.1325,1.1303,1.1302,1.1289,1.1287,1.1282,1.1282,1.1281,1.1264,1.1264,1.1264,1.1264,0,0,0,0,0,0,0,1.1396,1.1393,1.1372,1.1363,1.136,1.1348,1.1344,1.1343,1.1313,1.1323,1.132,1.1316,1.1287,1.1283,1.1281,1.128,1.1264,1.1264,1.1264,1.1263,1.1291,1.1292,0,0,0,0,0,0,1.1401,1.1395,1.1373,1.1371,1.1374,1.1349,1.1344,1.1341,1.1313,1.1308,1.1317,1.1314,1.1284,1.1282,1.128,1.1298,1.1264,1.1263,1.1263,1.129,1.1292,1.1293,0,0,0,0,0,0,1.1402,1.14,1.1375,1.1382,1.1378,1.1349,1.1346,1.1341,1.1336,1.1309,1.1303,1.1318,1.1283,1.128,1.1283,1.1296,1.1263,1.1263,1.1289,1.1291,1.1292,1.1335,0,0,0,0,0,0,1.1403,1.14,1.1408,1.1382,1.1378,1.1379,1.1347,1.1341,1.1336,1.1332,1.1308,1.1303,1.1282,1.1284,1.1282,1.1294,1.1262,1.1288,1.129,1.1292,1.1332,1.1338,1.1343,0,0,0,0,0,1.1404,1.1422,1.1408,1.1406,1.1386,1.138,1.1377,1.1353,1.1337,1.1343,1.1325,1.1304,1.1295,1.1284,1.1282,1.1295,1.1287,1.1289,1.1291,1.133,1.1337,1.1342,0,0,0,0,0,0,1.1449,1.1418,1.1403,1.1413,1.1399,1.1373,1.138,1.1361,1.1352,1.1349,1.1318,1.1313,1.1319,1.1307,1.1296,1.131,1.1287,1.1289,1.1317,1.1324,1.1329,1.1331,1.1262,0,0,0,0,0,1.146,1.1459,1.1431,1.1442,1.1436,1.141,1.1406,1.1388,1.1373,1.1367,1.135,1.1336,1.1329,1.1326,1.1319,1.133,1.1324,1.1338,1.1343,1.1347,1.1349,1.1352,1.1358,1.13,1.13,1.13,0,0,1.1483,1.1466,1.1467,1.1451,1.1438,1.1436,1.1405,1.1405,1.1403,1.1367,1.1368,1.1355,1.1337,1.1344,1.1346,1.1334,1.1363,1.135,1.1354,1.1353,1.1355,1.1361,1.1365,1.1302,1.1302,1.1301,0,0,1.1524,1.1511,1.1518,1.1506,1.1487,1.1469,1.1471,1.1447,1.1436,1.1437,1.1409,1.1406,1.1397,1.1385,1.1377,1.1411,1.139,1.141,1.1436,1.144,1.1444,1.1448,1.1459,1.1463,1.1412,1.1412,1.1412,0,1.1554,1.1551,1.1524,1.1525,1.1518,1.1485,1.1491,1.1481,1.1461,1.1457,1.1444,1.143,1.1416,1.1418,1.1426,1.1422,1.1422,1.1412,1.1446,1.1449,1.1453,1.1462,1.1467,1.1414,1.1414,1.1414,1.1413,0,1.1588,1.1586,1.1594,1.1575,1.1569,1.1573,1.1546,1.1543,1.1525,1.1508,1.1508,1.149,1.1477,1.1477,1.146,1.1476,1.1469,1.1452,1.1428,1.1461,1.1469,1.1473,1.1418,1.1417,1.1416,1.1415,0,0,1.1657,1.1622,1.1625,1.1616,1.1592,1.1589,1.1591,1.1579,1.1576,1.1563,1.1563,1.1554,1.1537,1.1529,1.151,1.1513,1.1539,1.1495,1.1494,1.1502,1.1554,1.1567,1.1572,1.1525,1.1526,1.1526,1.1555,0,1.1692,1.1693,1.1668,1.1675,1.1672,1.164,1.1641,1.1626,1.161,1.1604,1.1586,1.158,1.1559,1.1553,1.1555,1.1536,1.1549,1.1533,1.1523,1.1523,1.1528,1.1576,1.159,1.1618,1.1558,1.1559,1.1559,0,1.1733,1.1722,1.1729,1.1703,1.1701,1.1703,1.1688,1.1683,1.1665,1.1653,1.1643,1.1621,1.1619,1.1598,1.1594,1.1584,1.1579,1.1568,1.1569,1.1566,1.1543,1.1574,1.1627,1.163,1.1565,1.1564,1.1564,0,1.178,1.1767,1.1769,1.1762,1.1733,1.1734,1.1722,1.1703,1.1696,1.1684,1.1679,1.1667,1.166,1.165,1.1625,1.1612,1.1623,1.16,1.1612,1.1613,1.1616,1.1616,1.1667,1.1614,1.1614,1.1614,1.1614,0,1.1822,1.1827,1.179,1.1791,1.1795,1.1766,1.1771,1.1755,1.1739,1.1735,1.1707,1.1705,1.1672,1.1665,1.1645,1.1645,1.1642,1.1631,1.1626,1.1633,1.1634,1.1628,1.1625,1.1615,1.1615,1.1614,1.1614,0,1.1875,1.1851,1.185,1.1822,1.1815,1.182,1.1795,1.1794,1.1776,1.1772,1.1769,1.174,1.1731,1.1705,1.1689,1.1675,1.168,1.167,1.1686,1.1682,1.1695,1.1693,1.1743,1.1748,1.1693,1.1694,1.1694,0,1.1902,1.1905,1.1878,1.1873,1.1862,1.1856,1.1849,1.182,1.1814,1.1793,1.1794,1.1783,1.1772,1.1758,1.1735,1.1722,1.1711,1.1729,1.1709,1.1715,1.1709,1.1709,1.1708,1.1734,1.1734,1.1735,1.1735,0,1.1953,1.1941,1.1932,1.1918,1.1911,1.1899,1.1885,1.1883,1.1851,1.1845,1.1835,1.1826,1.1809,1.1797,1.1781,1.1767,1.1745,1.1742,1.1744,1.1751,1.1759,1.1753,1.1697,1.1741,1.174,1.174,1.174,1.1739,1.1993,1.1994,1.1974,1.1965,1.1951,1.1939,1.1936,1.1917,1.1908,1.1892,1.1876,1.1867,1.1847,1.1822,1.181,1.1802,1.1791,1.1794,1.1794,1.1795,1.1798,1.1761,1.1799,1.1799,1.1798,1.1798,1.1798,0,1.2041,1.2027,1.2018,1.2,1.1992,1.1973,1.1956,1.1951,1.1944,1.1927,1.1916,1.1904,1.1892,1.1867,1.1853,1.1851,1.184,1.1848,1.1847,1.1844,1.1809,1.1809,1.1856,1.1856,1.1856,1.1856,1.1856,1.1856,1.2065,1.2065,1.205,1.2041,1.2026,1.2018,1.201,1.1998,1.1984,1.1971,1.1961,1.1945,1.1925,1.1908,1.1896,1.1889,1.1884,1.1894,1.1884,1.1852,1.1847,1.1841,1.184,1.1894,1.1894,1.1919,1.1919,1.1919]}]]